Mombasa, Kenya

2:43 PM EAT on November 19, 2017 (GMT +0300)
Mombasa

Weather History for HKMO - November, 2011

Change the Weather History Date:

Friday, November 11, 2011

  Actual Average Record
Temperature  
Mean Temperature 80 °F -  
Max Temperature 87 °F 90 °F 89 °F (2013)
Min Temperature 73 °F 72 °F 71 °F (2005)
Cooling Degree Days 15    
Growing Degree Days 30 (Base 50)    
Moisture  
Dew Point 74 °F    
Average Humidity 80    
Maximum Humidity 94    
Minimum Humidity 54    
Precipitation  
Precipitation 0.00 in 0.12 in - ()
Sea Level Pressure  
Sea Level Pressure 29.88 in    
Wind  
Wind Speed 3 mph ()    
Max Wind Speed 15 mph    
Max Gust Speed -    
Visibility 8.2 miles    
Events      
Averages and records for this station are not official NWS values.
T = Trace of Precipitation, MM = Missing Value Source: Averaged Metar Reports

Daily Weather History Graph

Daily Weather History Graph

Search for Another Location

Airport or City:

Trip Planner

Search our weather history database for the weather conditions in past years. The results will help you decide how hot, cold, wet, or windy it might be!

Date:

Astronomy

Nov. 11, 2011 Rise Set
Actual Time 5:56 AM EAT 6:14 PM EAT
Civil Twilight 5:35 AM EAT 6:35 PM EAT
Nautical Twilight 5:09 AM EAT 7:01 PM EAT
Astronomical Twilight 4:44 AM EAT 7:26 PM EAT
Moon 6:46 PM EAT (11/11) 6:09 AM EAT (11/11)
Length of Visible Light 13h 00m
Length of Day
12h 17m
Full, 100% of the Moon is Illuminated
Nov 11
Full
Nov 18
Last Quarter
Nov 25
New
Dec 2
First Quarter
Dec 10
Full

Hourly Weather History & Observations

Time (EAT) Temp. Heat Index Dew Point Humidity Pressure Visibility Wind Dir Wind Speed Gust Speed Precip Events Conditions
12:00 AM 77.0 °F - 73.4 °F 89% 29.89 in 6.2 mi Calm Calm - N/A   Partly Cloudy
1:00 AM 77.0 °F - 73.4 °F 89% 29.86 in 6.2 mi Calm Calm - N/A   Scattered Clouds
2:00 AM 75.2 °F - 73.4 °F 94% 29.86 in 6.2 mi Calm Calm - N/A   Partly Cloudy
3:00 AM 75 °F - 73 °F 92% 29.85 in 19 mi Calm Calm - -   Mostly Cloudy
4:00 AM 75.2 °F - 73.4 °F 94% 29.86 in - North - - N/A   Partly Cloudy
5:00 AM 75.2 °F - 73.4 °F 94% 29.86 in 6.2 mi Calm Calm - N/A   Partly Cloudy
6:00 AM 75.2 °F - 71.6 °F 89% 29.89 in 6.2 mi Calm Calm - N/A   Partly Cloudy
7:00 AM 75.2 °F - 73.4 °F 94% 29.89 in 6.2 mi West 5.8 mph - N/A   Partly Cloudy
8:00 AM 78.8 °F - 75.2 °F 89% 29.92 in 6.2 mi WSW 5.8 mph - N/A   Mostly Cloudy
9:00 AM 81 °F - 75 °F 77% 29.94 in 19 mi SW 4.6 mph - -   Mostly Cloudy
9:00 AM 80.6 °F 86.2 °F 75.2 °F 84% 29.95 in 6.2 mi SW 4.6 mph - N/A   Partly Cloudy
10:00 AM 84.2 °F 92.3 °F 75.2 °F 74% 29.92 in 6.2 mi SSW 4.6 mph - N/A   Partly Cloudy
11:00 AM 86.0 °F 93.4 °F 73.4 °F 66% 29.92 in 6.2 mi SE 5.8 mph - N/A   Partly Cloudy
12:00 PM 87.8 °F 93.8 °F 71.6 °F 58% 29.89 in 6.2 mi SSE 10.4 mph - N/A   Partly Cloudy
1:00 PM 87.8 °F 93.8 °F 71.6 °F 58% 29.86 in 6.2 mi South 5.8 mph - N/A   Partly Cloudy
2:00 PM 87.8 °F 93.8 °F 71.6 °F 58% 29.83 in 6.2 mi SSE 15.0 mph - N/A   Partly Cloudy
3:00 PM 86 °F - 72 °F 54% 29.82 in 19 mi SSE 6.9 mph - -   Scattered Clouds
3:00 PM - - - N/A% 29.83 in 6.2 mi SSE 6.9 mph - N/A   Partly Cloudy
4:00 PM 86.0 °F 93.4 °F 73.4 °F 66% 29.80 in 6.2 mi SE 8.1 mph - N/A   Partly Cloudy
5:00 PM 84.2 °F 90.9 °F 73.4 °F 70% 29.83 in 6.2 mi SE 11.5 mph - N/A   Partly Cloudy
6:00 PM 82.4 °F 88.2 °F 73.4 °F 74% 29.83 in - South 9.2 mph - N/A   Unknown
7:00 PM 80.6 °F 86.2 °F 75.2 °F 84% 29.86 in 6.2 mi South 8.1 mph - N/A   Partly Cloudy
8:00 PM 80.6 °F 86.2 °F 75.2 °F 84% 29.89 in 6.2 mi South 6.9 mph - N/A   Scattered Clouds
9:00 PM 81 °F - 77 °F 83% 29.91 in 19 mi South 3.5 mph - -  
9:00 PM 80.6 °F 86.2 °F 75.2 °F 84% 29.89 in 6.2 mi South 3.5 mph - N/A   Scattered Clouds
10:00 PM 80.6 °F 86.2 °F 75.2 °F 84% 29.92 in 6.2 mi Calm Calm - N/A   Partly Cloudy
11:00 PM 78.8 °F - 75.2 °F 89% 29.89 in 6.2 mi South 3.5 mph - N/A   Partly Cloudy